Regional Weather Roundup
Issued by NWS

Home | Current Version | Previous Version | Graphics & Text | Print | Product List | Glossary On
Versions: 1 2 3 4 5 6 7 8 9 10 11 12 13 14 15 16 17 18 19 20 21 22 23 24 25 26 27 28 29 30 31 32 33 34 35 36 37 38 39 40 41 42 43 44 45 46 47 48 49 50
000
ASUS43 KTOP 281359
RWRKS

WEATHER ROUNDUP FOR KANSAS
NATIONAL WEATHER SERVICE GOODLAND KS
900 AM CDT SUN MAY 28 2017

NOTE:  "FAIR" INDICATES FEW OR NO CLOUDS BELOW 12,000 FEET WITH NO
SIGNIFICANT WEATHER AND/OR OBSTRUCTIONS TO VISIBILITY.

KSZ001>006-013>018-027>032-041>047-281500-
NORTHWEST KANSAS

CITY           SKY/WX    TMP DP  RH WIND       PRES   REMARKS
GOODLAND       SUNNY     57  46  66 NW15      30.16R
HAYS           SUNNY     63  50  62 NW13      30.06R
HILL CITY      SUNNY     62  48  60 NW13      30.08R
RUSSELL        SUNNY     64  51  62 NW12      30.05R
$$

KSZ061>065-074>080-084>089-281500-
SOUTHWEST KANSAS

CITY           SKY/WX    TMP DP  RH WIND       PRES   REMARKS
DODGE CITY     SUNNY     61  49  64 NW13      30.11S
ELKHART          N/A     57  39  51 MISG        N/A
GARDEN CITY    SUNNY     58  48  69 NW13      30.14R
GREAT BEND     SUNNY     63  52  67 NW10      30.08R
LIBERAL        SUNNY     59  49  69 NW15      30.18R
$$

KSZ066>073-081>083-090>101-281500-
SOUTHEAST KANSAS

CITY           SKY/WX    TMP DP  RH WIND       PRES   REMARKS
CHANUTE        SUNNY     68  58  70 N7G18     29.97R
COFFEYVILLE    SUNNY     69  61  75 N14       29.97R
HUTCHINSON     SUNNY     66  53  63 NW9       30.04R
MEDICINE LODGE   N/A     65  52  62 N10       30.06R
NEWTON         SUNNY     66  55  67 NW12      30.03R
PARSONS        SUNNY     69  59  70 N10       29.99R
WICHITA INTL   MOSUNNY   66  54  65 N13       30.02R
WICHITA JABRA  SUNNY     67  55  65 NW13      30.02R
WINFIELD       SUNNY     68  58  70 NW10      30.03R
$$

KSZ007>012-019>026-033>040-048>060-102>105-281500-
NORTHEAST KANSAS

CITY           SKY/WX    TMP DP  RH WIND       PRES   REMARKS
CONCORDIA      SUNNY     63  53  70 W12G21    30.00R
EMPORIA        SUNNY     66  56  70 NW8       29.98R
LAWRENCE       SUNNY     68  57  68 NW10      29.94S
MANHATTAN      SUNNY     65  56  72 W9        29.99R
OLATHE IND     SUNNY     65  58  78 NW7       29.94R
OLATHE EXE     SUNNY     65  58  78 N7        29.94R
SALINA         SUNNY     67  55  65 NW8       30.03R
TOPEKA BILLARD SUNNY     66  58  75 W7        29.96R
TOPEKA FORBES  SUNNY     68  57  68 N7        29.96R
$$




USA.gov is the U.S. government's official web portal to all federal, state and local government web resources and services.